AirNav   Everest Fuels
 
 867 users online  

FL63 Westgate Villas Helipad
Kissimmee, Florida, USA

GOING TO KISSIMMEE?


FAA INFORMATION EFFECTIVE 21 MAY 2020

Location

FAA Identifier: FL63
Lat/Long: 28-19-53.2400N 081-35-36.0100W
28-19.887333N 081-35.600167W
28.3314556,-81.5933361
(estimated)
Elevation: 112 ft. / 34 m (estimated)
From city: 10 miles WNW of KISSIMMEE, FL
Time zone: UTC -4 (UTC -5 during Standard Time)
Zip code: 34747

Heliport Operations

Heliport use: Private use. Permission required prior to landing
Activation date: 11/2018
Control tower: no
ARTCC: JACKSONVILLE CENTER
FSS: SAINT PETERSBURG FLIGHT SERVICE STATION
Attendance: 
Segmented circle: no

Heliport Communications

WX AWOS-3PT at ISM (9 nm E): 128.775 (407-847-0533)
WX ASOS at MCO (16 nm E): PHONE 407-855-5235
WX ASOS at GIF (18 nm SW): 133.675 (863-956-2097)
WX ASOS at ORL (19 nm NE): PHONE 407-658-6753

Nearby radio navigation aids

VOR radial/distance  VOR name  Freq  Var
ORLr227/18.6ORLANDO VORTAC112.2000E
LALr046/30.4LAKELAND VORTAC116.0001E

Heliport Services

Runway Information

Helipad H1

Dimensions: 33 x 33 ft. / 10 x 10 m
Surface: asphalt, in fair condition
Latitude: 28-19.887333N
Longitude: 081-35.600167W
Elevation: 112.0 ft.
Traffic pattern: leftleft

Heliport Ownership and Management from official FAA records

Ownership: Privately-owned
Owner: WESTGATE VILLAS RESORT, LTD
5519 W. HWY 192
KISSIMMEE, FL 34747
Phone 407-310-4363
Manager: RICK VIOLETTE
10787 ROYAL CYPRESS WAY
KISSIMMEE, FL 34747
Phone 407-310-4363

Heliport Operational Statistics

Aircraft based on the field: 2
Single engine airplanes: 1
Helicopters: 1
    

Instrument Procedures

There are no published instrument procedures at FL63.

Some nearby airports with instrument procedures:

KISM - Kissimmee Gateway Airport (9 nm E)
KMCO - Orlando International Airport (16 nm E)
KGIF - Winter Haven Regional Airport (18 nm SW)
KORL - Executive Airport (19 nm NE)
X04 - Orlando Apopka Airport (23 nm N)
 
Loc | Ops | Rwys | IFR | FBO | Links
Com | Nav | Svcs | Stats | Notes
Aerial photo
No photo
 
Airport distance calculator
Flying to Westgate Villas Helipad? Find the distance to fly.

From to FL63

Sunrise and sunset
Times for 06-Jun-2020
 Local
(UTC-4)
 Zulu
(UTC)
Morning civil twilight06:0310:03
Sunrise06:3010:30
Sunset20:2100:21
Evening civil twilight20:4700:47

Current date and time
Zulu (UTC)  06-Jun-2020 13:19:53
Local (UTC-4)  06-Jun-2020 09:19:53
 
METAR
KISM 
9nm E 
061256Z 08006KT 10SM -RA FEW043 25/24 A3003 RMK AO2 SLP167 T02500244 PNO $
KMCO 
15nm E 
061253Z 06007KT 10SM -RA FEW055 BKN095 OVC250 24/23 A3002 RMK AO2 SLP163 P0001 T02440233 $
KGIF 
18nm SW 
061300Z AUTO 09009KT 10SM -RA SCT009 BKN032 BKN049 25/23 A3001 RMK AO2 P0000 T02500233
KORL 
19nm NE 
061253Z 07006KT 10SM BKN012 BKN026 OVC110 25/23 A3002 RMK AO2 RAB12E21 SLP170 P0000 T02500233
TAF
KISM 
9nm E 
061140Z 0612/0712 VRB04KT 6SM -RA FEW040 BKN100 OVC250 TEMPO 0614/0618 4SM SHRA SCT015 BKN030 FM061800 12007KT 4SM RA VCTS SCT030CB BKN050 OVC100 FM070100 07010KT 6SM SHRA SCT015 BKN025 FM070600 10009KT P6SM VCSH SCT010 BKN020
KMCO 
15nm E 
061140Z 0612/0718 14007KT 6SM -RA FEW040 BKN100 OVC250 TEMPO 0614/0618 4SM SHRA SCT015 BKN030 FM061800 06008KT 4SM RA VCTS SCT030CB BKN050 OVC100 FM070100 07010KT 6SM SHRA SCT015 BKN025 FM070600 10009KT P6SM VCSH SCT010 BKN020 FM071100 13005KT P6SM VCSH BKN030
NOTAMs
Click for the latest NOTAMs
NOTAMs are issued by the DoD/FAA and will open in a separate window not controlled by AirNav.

 

 
 

Would you like to see your business listed on this page?

 If your business provides an interesting product or service to pilots, flight crews, aircraft, or users of the Westgate Villas Helipad, you should consider listing it here.  To start the listing process, click on the button below
 
Add a business
 

Other Pages about Westgate Villas Helipad

Update a link
 
Copyright © AirNav, LLC. All rights reserved. Privacy Policy  Contact